FENGYUN 1C DEB, 30266

Orbit data source: Space-Track

FENGYUN 1C DEB, 30266 is space debris in SSO originally from a launch on Mon, 10 May 1999 UTC launched from the Taiyaun Space Center, China (TSC). Fengyun 1C debris stems from the Chinese weather satellite Fengyun-1C, which was intentionally destroyed by a Chinese anti-satellite missile in 2007. This event dramatically increased the amount of space debris, with thousands of trackable fragments posing hazards to satellites and human spaceflight. The Fengyun 1C debris cloud has become a focal point in discussions about space sustainability and the need for international regulations to prevent the creation of new debris.

Loading next visibility...
Identifier
30266, 1999-025YB
Orbit
SSO
Country
Flag of CNCN / PRC
Related business
Manufacturer
Unknown
Mission
Spacecraft
Bus & Motor
Unknown
Mass
Unknown
Launch date (UTC)
1999-05-10 (27 years ago)
Launch vehicle
Unknown
Launch site
Taiyaun Space Center, China (TSC)
Object type
Payload
Rocket body
Debris
Shape & HBR
Unknown shape, 0.1 m
Radar Cross Section
Medium (>0.1 m² and <1 m²)

Expand to show TLE details & history
Last TLE update: 1 week ago

TLE from 1 week ago
0 FENGYUN 1C DEB
1 30266U 99025YB  26153.68450142  .00002094  00000-0  10519-2 0  9992
2 30266  99.0282 225.2081 0080538 297.7381 193.9534 14.15982987992222
Epoch: 2026-06-02T16:25Z
TLE epoch observation values (Epoch: 2026-06-02T16:25:40.922Z)
Latitude
47.82923°
Longitude
-82.31726°
Altitude
902.829 km
Speed
7.376 km/s
True Right ascension
03h 41m 01s
True Declination
47° 39' 41"
Sunlit
Object was in daylight at epoch
Visualization orbit readout
Latitude
Unknown
Longitude
Unknown
Altitude
Unknown
Speed
Unknown
Apparent Right ascension
Unknown
Apparent Declination
Unknown
Sunlit
N/A
Visualization observer readout
Local Sidereal Time
22:00:07
Azimuth
Unknown
Elevation
Unknown
Doppler factor
Unknown
Orbital elements
Apogee altitude
894.252 km
Perigee altitude
778.047 km
Semi-major axis
7,214.286 km
Eccentricity
0.00805
Inclination
99.0282°
RAAN
225.2081°
Arg. of periapsis
297.7381°
True anomaly
193.73301°
Mean anomaly
193.9534°
Eccentric anomaly
193.84299°
Mean motion
3.54204 °/min
Orbital period
101.64 mins
BSTAR
0.0010519
Loading maneuver chart data...
Computing Atmospheric mass density...

Documentation

Showing up to 5 results
|